This is the latest recevied weather packets stored in our database for station/object N7WSS. If no packets are shown the sender has not sent any weather packets the latest 10 day(s).
| Time | Temp. | Humidity | Pressure | Rain* | Wind** | Luminosity | Snow |
|---|---|---|---|---|---|---|---|
| 1777300581 | 16.67° C | 37% | 1012.5 hPa | 0 mm | - | - | - |
| 1777300278 | 16.67° C | 37% | 1012.5 hPa | 0 mm | - | - | - |
| 1777299974 | 15.56° C | 38% | 1012.4 hPa | 0 mm | - | - | - |
| 1777299671 | 15.56° C | 39% | 1012.3 hPa | 0 mm | - | - | - |
| 1777299369 | 15° C | 40% | 1012.4 hPa | 0 mm | - | - | - |
| 1777299066 | 14.44° C | 41% | 1012.4 hPa | 0 mm | - | - | - |
| 1777298763 | 14.44° C | 41% | 1012.5 hPa | 0 mm | - | - | - |
| 1777298460 | 13.89° C | 42% | 1012.1 hPa | 0 mm | - | - | - |
| 1777298156 | 13.33° C | 43% | 1012.4 hPa | 0 mm | - | - | - |
| 1777297850 | 13.89° C | 42% | 1012.3 hPa | 0 mm | - | - | - |
| 1777297549 | 13.33° C | 43% | 1012.1 hPa | 0 mm | - | - | - |
| 1777297245 | 12.78° C | 44% | 1012.1 hPa | 0 mm | - | - | - |
| 1777296943 | 12.22° C | 45% | 1012.3 hPa | 0 mm | - | - | - |
| 1777296639 | 11.67° C | 46% | 1012.1 hPa | 0 mm | - | - | - |
| 1777296309 | 11.11° C | 47% | 1012.3 hPa | 0 mm | - | - | - |
| 1777296005 | 10.56° C | 48% | 1012.3 hPa | 0 mm | - | - | - |
| 1777295703 | 10° C | 50% | 1012.1 hPa | 0 mm | - | - | - |
| 1777295400 | 9.44° C | 51% | 1012.3 hPa | 0 mm | - | - | - |
| 1777295097 | 8.33° C | 53% | 1012 hPa | 0 mm | - | - | - |
| 1777294794 | 8.33° C | 54% | 1011.9 hPa | 0 mm | - | - | - |
| 1777294489 | 8.33° C | 54% | 1012 hPa | 0 mm | - | - | - |
| 1777294187 | 8.33° C | 54% | 1011.8 hPa | 0 mm | - | - | - |
| 1777293883 | 8.33° C | 54% | 1011.8 hPa | 0 mm | - | - | - |
| 1777293578 | 8.33° C | 53% | 1011.7 hPa | 0 mm | - | - | - |
| 1777293274 | 8.33° C | 54% | 1011.6 hPa | 0 mm | - | - | - |
* Rain latest hour (hover to see other rain measurements)
** Current wind speed in m/s (hover to see current wind gust speed)